Location: Newark
(15.4608°S, 41.1635°W)
Time: 09:17:28
(UTC+00:00)

Transit 4A - Pass Details

Date: 07 March 2021
Orbit: 869 x 975 km, 66.8° (Epoch: 22 April)

Event Time Altitude Azimuth Distance (km) Brightness Sun altitude
Rises 09:37:30 0° 191° (SSW) 3,633 10.9 11.4°
Reaches altitude 10° 09:40:09 10° 185° (S) 2,696 10.3 12.1°
Maximum altitude 09:46:12 46° 113° (ESE) 1,273 9.7 13.5°
Drops below altitude 10° 09:52:15 10° 40° (NE) 2,711 11.0 15.0°
Sets 09:54:55 0° 34° (NE) 3,655 11.5 15.6°
